Home > Weather > Rotherham > Past weeks

Flag for United Kingdom Past Weather in Rotherham, England, United Kingdom — Yesterday and Last 2 Weeks

Now
51 °F

Cool.


Feels Like: 51 °F
Forecast: 49 / 61 °F
Wind: 1 mph from North

Location: Nottingham Weather Centre

Current Time: Jun 28, 2016 at 11:40:27 PM

Latest Report: Jun 28, 2016 at 11:00 PM


Visibility: 2 mi

Pressure: 29.75 "Hg

Humidity: 97%

Dew Point: 50 °F

Location of RotherhamLocation

Past Weather in Rotherham — Graph

°F

Rotherham Temperature Yesterday

Maximum temperature yesterday: 63 °F (at 2:00 PM)
Minimum temperature yesterday: 54 °F (at 5:00 AM)
Average temperature yesterday: 59 °F

High & Low Weather Summary for the Past Weeks

 TemperatureHumidityPressure
High71 °F (Jun 23, 4:00 PM)100% (Jun 14, 6:00 AM)30.22 "Hg (Jun 14, 6:00 AM)
Low51 °F (Jun 25, 5:00 AM)45% (Jun 24, 3:00 PM)29.32 "Hg (Jun 14, 5:00 PM)
Average58 °F82%29.88 "Hg
* Reported Jun 13 10:00 PM — Jun 28 10:00 PM, Rotherham, Weather by CustomWeather, © 2016

Note: Actual official high and low records may vary slightly from our data, if they occured in-between our weather recording intervals... More about our weather records

Advertising

Rotherham Weather History for the Previous 24 Hours

Scroll right to see more
 ConditionsComfort  
Time TempWeatherWind HumidityBarometerVisibility
10:00 PM
Tue, Jun 28
51 °FCool.5 mph96%29.74 "Hg3 mi
8:00 PM54 °FLots of rain. Cloudy.5 mph91%29.76 "Hg3 mi
7:00 PM54 °FRain showers. Cloudy.5 mph95%29.77 "Hg2 mi
6:00 PM54 °FLight rain. Cloudy.1 mph91%29.79 "Hg17 mi
5:00 PM54 °FLight rain. Cloudy.5 mph89%29.83 "Hg14 mi
4:00 PM57 °FRain showers. Cloudy.6 mph81%29.85 "Hg5 mi
3:00 PM57 °FCool.5 mph83%29.87 "Hg11 mi
2:00 PM62 °FMild.8 mph55%29.88 "Hg22 mi
1:00 PM63 °FMild.8 mph58%29.91 "Hg15 mi
12:00 PM61 °FCool.5 mph66%29.94 "Hg14 mi
11:00 AM62 °FCool.7 mph68%29.97 "Hg31 mi
10:00 AM58 °FCool.5 mph75%29.99 "Hg8 mi
9:00 AM57 °FCool.5 mph79%30.01 "Hg22 mi
8:00 AM55 °FCool.3 mph82%30.02 "Hg28 mi
7:00 AM53 °FCool.3 mph84%30.03 "Hg14 mi
6:00 AM52 °FCool.3 mph88%30.05 "Hg14 mi
5:00 AM51 °FCool.6 mph88%30.05 "Hg8 mi
4:00 AM51 °FSmoke.7 mph87%30.05 "Hg6 mi
3:00 AM52 °FSmoke.6 mph85%30.07 "Hg10 mi
2:00 AM53 °FCool.8 mph82%30.09 "Hg19 mi
12:00 AM56 °FSmoke.5 mph74%30.10 "Hg31 mi
11:00 PM
Mon, Jun 27
57 °FCool.3 mph67%30.10 "Hg4 mi
Weather by CustomWeather, © 2016

See weather overviewHow to use our weather pages